TimeHST,TemperatureF,Dew PointF,Humidity,Sea Level PressureIn,VisibilityMPH,Wind Direction,Wind SpeedMPH,Gust SpeedMPH,PrecipitationIn,Events,Conditions,WindDirDegrees,DateUTC
12:54 AM,71.1,70.0,96,30.01,10.0,NNE,8.1,-,N/A,,Clear,30,2014-02-12 10:54:00
1:54 AM,69.1,69.1,100,30.00,10.0,East,5.8,-,N/A,,Clear,80,2014-02-12 11:54:00
2:54 AM,69.1,68.0,96,29.99,10.0,Calm,Calm,-,N/A,,Clear,0,2014-02-12 12:54:00
3:54 AM,68.0,68.0,100,29.98,10.0,NNE,4.6,-,N/A,,Clear,20,2014-02-12 13:54:00
4:54 AM,71.1,70.0,96,29.98,10.0,NNE,6.9,-,N/A,,Clear,20,2014-02-12 14:54:00
5:54 AM,66.9,66.0,97,29.99,10.0,East,8.1,-,N/A,,Clear,80,2014-02-12 15:54:00
6:54 AM,64.0,64.0,100,30.01,10.0,NW,3.5,-,N/A,,Clear,310,2014-02-12 16:54:00
7:54 AM,68.0,66.9,96,30.02,10.0,Calm,Calm,-,N/A,,Clear,0,2014-02-12 17:54:00
8:54 AM,73.9,66.9,79,30.02,10.0,Calm,Calm,-,N/A,,Clear,0,2014-02-12 18:54:00
9:54 AM,77.0,66.9,71,30.03,10.0,SSW,6.9,-,N/A,,Clear,210,2014-02-12 19:54:00
10:54 AM,79.0,66.9,66,30.03,10.0,WNW,4.6,-,N/A,,Clear,300,2014-02-12 20:54:00
11:54 AM,80.1,68.0,67,30.00,10.0,SSE,9.2,-,N/A,,Partly Cloudy,160,2014-02-12 21:54:00
12:54 PM,79.0,66.0,64,29.98,10.0,SSW,9.2,-,N/A,,Partly Cloudy,200,2014-02-12 22:54:00
1:54 PM,80.1,64.0,58,29.95,10.0,SSE,9.2,-,N/A,,Partly Cloudy,160,2014-02-12 23:54:00
2:54 PM,80.1,64.9,60,29.93,10.0,South,10.4,-,N/A,,Partly Cloudy,180,2014-02-13 00:54:00
3:54 PM,77.0,68.0,74,29.92,10.0,North,5.8,-,N/A,,Scattered Clouds,10,2014-02-13 01:54:00
4:54 PM,77.0,68.0,74,29.93,10.0,NNW,3.5,-,N/A,,Scattered Clouds,340,2014-02-13 02:54:00
5:54 PM,75.9,66.9,74,29.94,10.0,Calm,Calm,-,0.01,,Scattered Clouds,0,2014-02-13 03:54:00
6:54 PM,70.0,68.0,93,29.97,10.0,NNW,3.5,-,N/A,,Scattered Clouds,330,2014-02-13 04:54:00
7:54 PM,70.0,68.0,93,29.98,10.0,North,4.6,-,N/A,,Clear,10,2014-02-13 05:54:00
8:54 PM,69.1,66.9,93,29.97,10.0,NNE,3.5,-,N/A,,Clear,20,2014-02-13 06:54:00
9:54 PM,69.1,66.0,90,29.97,10.0,NNE,4.6,-,N/A,,Clear,20,2014-02-13 07:54:00
10:54 PM,69.1,66.0,90,29.97,10.0,NE,3.5,-,N/A,,Clear,40,2014-02-13 08:54:00
11:54 PM,66.0,64.0,93,29.97,10.0,Calm,Calm,-,0.01,,Clear,0,2014-02-13 09:54:00